TAI322 MPTO-MSLP

Flight info

Callsign TAI322
Flight time 1h 43m
Altitude 38000
Route AROVI DCT ANSON DCT EMARI DCT ALTEG ALTEG2
Aircraft A320/M-SDE3FGHIRWY/LB1

Departure

Time 2026-04-23 20:58
Airport Tocumen International Airport (MPTO)

Arrival

Time 2026-04-23 22:41
Airport El Salvador International Airport Saint Óscar Arnulfo Romero y Galdámez (MSLP)
Time Latitude Longitude Altitude Speed Heading
2026-04-23 20:17 9.06838 -79.38574 47 ft 0 kts 147°
2026-04-23 20:37 9.06839 -79.38574 47 ft 0 kts 147°
2026-04-23 20:49 9.06835 -79.38572 47 ft 4 kts 147°
2026-04-23 20:49 9.06830 -79.38569 45 ft 0 kts 147°
2026-04-23 20:49 9.06829 -79.38568 45 ft 0 kts 147°
2026-04-23 20:49 9.06828 -79.38567 45 ft 0 kts 147°
2026-04-23 20:50 9.06826 -79.38566 45 ft 0 kts 147°
2026-04-23 20:50 9.06834 -79.38572 47 ft 2 kts 147°
2026-04-23 20:50 9.06849 -79.38581 42 ft 2 kts 147°
2026-04-23 20:50 9.06863 -79.38590 43 ft 2 kts 147°
2026-04-23 20:51 9.06878 -79.38596 45 ft 2 kts 206°
2026-04-23 20:51 9.06892 -79.38587 45 ft 2 kts 238°
2026-04-23 20:51 9.06901 -79.38572 47 ft 2 kts 242°
2026-04-23 20:51 9.06909 -79.38557 46 ft 2 kts 242°
2026-04-23 20:52 9.06917 -79.38541 43 ft 2 kts 242°
2026-04-23 20:52 9.06925 -79.38526 44 ft 2 kts 242°
2026-04-23 20:52 9.06933 -79.38510 44 ft 2 kts 242°
2026-04-23 20:52 9.06941 -79.38495 44 ft 2 kts 242°
2026-04-23 20:53 9.06946 -79.38485 42 ft 2 kts 242°
2026-04-23 20:53 9.06952 -79.38474 43 ft 0 kts 242°
2026-04-23 20:54 9.06955 -79.38468 44 ft 1 kts 242°
2026-04-23 20:54 9.06955 -79.38469 44 ft 2 kts 241°
2026-04-23 20:54 9.06916 -79.38466 44 ft 8 kts 134°
2026-04-23 20:54 9.06891 -79.38422 47 ft 7 kts 122°
2026-04-23 20:55 9.06869 -79.38381 46 ft 6 kts 108°
2026-04-23 20:55 9.06870 -79.38322 46 ft 10 kts 73°
2026-04-23 20:55 9.06902 -79.38267 46 ft 9 kts 54°
2026-04-23 20:55 9.06961 -79.38205 47 ft 16 kts 38°
2026-04-23 20:56 9.07050 -79.38151 45 ft 14 kts 29°
2026-04-23 20:56 9.07129 -79.38106 48 ft 12 kts 30°
2026-04-23 20:56 9.07194 -79.38062 48 ft 10 kts 51°
2026-04-23 20:56 9.07197 -79.37998 48 ft 9 kts 112°
2026-04-23 20:57 9.07160 -79.37935 48 ft 11 kts 122°
2026-04-23 20:57 9.07111 -79.37923 47 ft 8 kts 213°
2026-04-23 20:57 9.07040 -79.37965 47 ft 29 kts 210°
2026-04-23 20:57 9.06640 -79.38193 44 ft 99 kts 209°
2026-04-23 20:58 9.05872 -79.38631 44 ft 151 kts 209°
2026-04-23 20:58 9.04888 -79.39195 469 ft 166 kts 210°
2026-04-23 20:58 9.03866 -79.39780 1076 ft 171 kts 211°
2026-04-23 20:58 9.02821 -79.40389 1571 ft 180 kts 211°
2026-04-23 20:59 9.01662 -79.41046 1840 ft 202 kts 210°
2026-04-23 20:59 9.00361 -79.41777 2104 ft 227 kts 210°
2026-04-23 20:59 8.98906 -79.42598 2458 ft 251 kts 210°
2026-04-23 20:59 8.97321 -79.43492 3031 ft 267 kts 210°
2026-04-23 21:00 8.95683 -79.44420 3898 ft 272 kts 210°
2026-04-23 21:00 8.94185 -79.45597 4733 ft 276 kts 231°
2026-04-23 21:00 8.93274 -79.47303 5553 ft 279 kts 256°
2026-04-23 21:00 8.93165 -79.49258 6373 ft 282 kts 281°
2026-04-23 21:01 8.93880 -79.51100 7168 ft 284 kts 300°
2026-04-23 21:01 8.94879 -79.52834 7987 ft 287 kts 300°
2026-04-23 21:01 8.95893 -79.54582 8799 ft 290 kts 300°
2026-04-23 21:01 8.96917 -79.56351 9593 ft 293 kts 300°
2026-04-23 21:02 8.97951 -79.58146 10271 ft 300 kts 300°
2026-04-23 21:02 8.99038 -79.60041 10521 ft 323 kts 300°
2026-04-23 21:02 9.00194 -79.62060 10941 ft 337 kts 300°
2026-04-23 21:02 9.01378 -79.64131 11571 ft 343 kts 299°
2026-04-23 21:03 9.02579 -79.66231 12239 ft 347 kts 299°
2026-04-23 21:03 9.03795 -79.68354 12894 ft 351 kts 299°
2026-04-23 21:03 9.05025 -79.70502 13536 ft 355 kts 298°
2026-04-23 21:03 9.06270 -79.72678 14122 ft 359 kts 298°
2026-04-23 21:04 9.07525 -79.74874 14685 ft 362 kts 299°
2026-04-23 21:04 9.08792 -79.77088 15258 ft 365 kts 299°
2026-04-23 21:04 9.10073 -79.79325 15824 ft 368 kts 299°
2026-04-23 21:04 9.11363 -79.81574 16389 ft 371 kts 300°
2026-04-23 21:05 9.12662 -79.83844 16957 ft 374 kts 299°
2026-04-23 21:05 9.13971 -79.86132 17526 ft 377 kts 299°
2026-04-23 21:05 9.15290 -79.88444 18058 ft 381 kts 299°
2026-04-23 21:05 9.16617 -79.90772 18541 ft 384 kts 299°
2026-04-23 21:06 9.17955 -79.93117 19028 ft 385 kts 299°
2026-04-23 21:06 9.19299 -79.95474 19517 ft 387 kts 299°
2026-04-23 21:06 9.20647 -79.97841 20005 ft 389 kts 299°
2026-04-23 21:06 9.21998 -80.00212 20516 ft 390 kts 299°
2026-04-23 21:07 9.23358 -80.02591 21019 ft 391 kts 299°
2026-04-23 21:07 9.24722 -80.04974 21502 ft 392 kts 299°
2026-04-23 21:07 9.26091 -80.07365 21979 ft 393 kts 299°
2026-04-23 21:07 9.27446 -80.09736 22435 ft 395 kts 299°
2026-04-23 21:08 9.28824 -80.12151 22872 ft 397 kts 299°
2026-04-23 21:08 9.30207 -80.14581 23289 ft 400 kts 299°
2026-04-23 21:08 9.31600 -80.17030 23663 ft 402 kts 299°
2026-04-23 21:08 9.33001 -80.19487 23999 ft 405 kts 299°
2026-04-23 21:09 9.34421 -80.21971 24282 ft 409 kts 299°
2026-04-23 21:09 9.35852 -80.24474 24603 ft 412 kts 299°
2026-04-23 21:09 9.37289 -80.26993 24942 ft 414 kts 299°
2026-04-23 21:09 9.38730 -80.29526 25276 ft 416 kts 299°
2026-04-23 21:10 9.40179 -80.32075 25612 ft 419 kts 299°
2026-04-23 21:10 9.41637 -80.34637 25945 ft 421 kts 299°
2026-04-23 21:10 9.43103 -80.37214 26274 ft 423 kts 299°
2026-04-23 21:10 9.44577 -80.39801 26598 ft 425 kts 299°
2026-04-23 21:11 9.46061 -80.42403 26917 ft 428 kts 298°
2026-04-23 21:11 9.47551 -80.45018 27224 ft 430 kts 298°
2026-04-23 21:11 9.49045 -80.47646 27548 ft 432 kts 298°
2026-04-23 21:11 9.50546 -80.50289 27860 ft 434 kts 298°
2026-04-23 21:12 9.52057 -80.52945 28167 ft 436 kts 298°
2026-04-23 21:12 9.53575 -80.55611 28461 ft 438 kts 298°
2026-04-23 21:12 9.55098 -80.58295 28765 ft 441 kts 298°
2026-04-23 21:12 9.56628 -80.60994 29052 ft 443 kts 298°
2026-04-23 21:13 9.58166 -80.63705 29344 ft 445 kts 298°
2026-04-23 21:13 9.59718 -80.66432 29637 ft 447 kts 298°
2026-04-23 21:13 9.61274 -80.69168 29920 ft 449 kts 298°
2026-04-23 21:13 9.62837 -80.71918 30156 ft 452 kts 298°
2026-04-23 21:14 9.64407 -80.74686 30373 ft 454 kts 298°
2026-04-23 21:14 9.65985 -80.77468 30592 ft 456 kts 298°
2026-04-23 21:14 9.67570 -80.80262 30792 ft 459 kts 298°
2026-04-23 21:14 9.69169 -80.83074 30994 ft 461 kts 298°
2026-04-23 21:15 9.70774 -80.85898 31199 ft 464 kts 298°
2026-04-23 21:15 9.72386 -80.88735 31423 ft 465 kts 298°
2026-04-23 21:15 9.73998 -80.91580 31748 ft 464 kts 297°
2026-04-23 21:15 9.75604 -80.94417 32050 ft 464 kts 297°
2026-04-23 21:16 9.77210 -80.97260 32339 ft 465 kts 297°
2026-04-23 21:16 9.78819 -81.00106 32610 ft 466 kts 297°
2026-04-23 21:16 9.80433 -81.02958 32881 ft 467 kts 297°
2026-04-23 21:16 9.82051 -81.05813 33154 ft 467 kts 297°
2026-04-23 21:17 9.83674 -81.08675 33422 ft 468 kts 297°
2026-04-23 21:17 9.85293 -81.11541 33712 ft 469 kts 297°
2026-04-23 21:17 9.86913 -81.14411 33980 ft 469 kts 297°
2026-04-23 21:17 9.88531 -81.17283 34260 ft 469 kts 297°
2026-04-23 21:18 9.90147 -81.20149 34580 ft 467 kts 297°
2026-04-23 21:18 9.91759 -81.23001 34908 ft 465 kts 297°
2026-04-23 21:18 9.93363 -81.25835 35238 ft 463 kts 297°
2026-04-23 21:18 9.94959 -81.28657 35566 ft 460 kts 297°
2026-04-23 21:19 9.96543 -81.31460 35971 ft 455 kts 297°
2026-04-23 21:19 9.98114 -81.34233 36341 ft 452 kts 297°
2026-04-23 21:19 9.99674 -81.36989 36672 ft 449 kts 297°
2026-04-23 21:19 10.01222 -81.39729 36975 ft 446 kts 297°
2026-04-23 21:20 10.02758 -81.42458 37275 ft 444 kts 297°
2026-04-23 21:20 10.04285 -81.45173 37544 ft 442 kts 297°
2026-04-23 21:20 10.05807 -81.47876 37795 ft 441 kts 297°
2026-04-23 21:20 10.07327 -81.50574 37898 ft 440 kts 297°
2026-04-23 21:21 10.10340 -81.55911 37910 ft 438 kts 296°
2026-04-23 21:21 10.13368 -81.61282 37907 ft 439 kts 296°
2026-04-23 21:22 10.16391 -81.66661 37904 ft 440 kts 297°
2026-04-23 21:22 10.19438 -81.72083 37910 ft 444 kts 297°
2026-04-23 21:23 10.22508 -81.77527 37910 ft 444 kts 297°
2026-04-23 21:23 10.25575 -81.82975 37910 ft 444 kts 297°
2026-04-23 21:24 10.28640 -81.88424 37915 ft 445 kts 297°
2026-04-23 21:24 10.31703 -81.93880 37917 ft 445 kts 297°
2026-04-23 21:25 10.34763 -81.99337 37916 ft 445 kts 297°
2026-04-23 21:25 10.37832 -82.04793 37919 ft 445 kts 297°
2026-04-23 21:26 10.40896 -82.10257 37922 ft 445 kts 297°
2026-04-23 21:26 10.43954 -82.15727 37923 ft 445 kts 297°
2026-04-23 21:27 10.47017 -82.21191 37922 ft 445 kts 297°
2026-04-23 21:27 10.50085 -82.26654 37934 ft 444 kts 296°
2026-04-23 21:28 10.53138 -82.32106 37935 ft 444 kts 296°
2026-04-23 21:28 10.56188 -82.37549 37933 ft 443 kts 296°
2026-04-23 21:29 10.59226 -82.42987 37931 ft 442 kts 296°
2026-04-23 21:29 10.62251 -82.48420 37932 ft 441 kts 296°
2026-04-23 21:30 10.65274 -82.53841 37937 ft 441 kts 296°
2026-04-23 21:30 10.68302 -82.59257 37935 ft 440 kts 296°
2026-04-23 21:31 10.71088 -82.64725 37932 ft 436 kts 287°
2026-04-23 21:31 10.72980 -82.70557 37927 ft 434 kts 285°
2026-04-23 21:32 10.74861 -82.76394 37926 ft 434 kts 285°
2026-04-23 21:32 10.76746 -82.82233 37924 ft 434 kts 285°
2026-04-23 21:33 10.78628 -82.88074 37921 ft 434 kts 285°
2026-04-23 21:33 10.80503 -82.93913 37921 ft 434 kts 285°
2026-04-23 21:34 10.82378 -82.99757 37920 ft 434 kts 285°
2026-04-23 21:34 10.84250 -83.05596 37919 ft 434 kts 285°
2026-04-23 21:35 10.86123 -83.11436 37918 ft 434 kts 285°
2026-04-23 21:35 10.88001 -83.17273 37917 ft 434 kts 285°
2026-04-23 21:36 10.90802 -83.26018 37918 ft 433 kts 285°
2026-04-23 21:37 10.92670 -83.31839 37914 ft 433 kts 285°
2026-04-23 21:37 10.94531 -83.37658 37916 ft 432 kts 285°
2026-04-23 21:38 10.96391 -83.43479 37911 ft 432 kts 285°
2026-04-23 21:38 10.97938 -83.48317 37911 ft 433 kts 285°
2026-04-23 21:39 10.99804 -83.54136 37907 ft 433 kts 285°
2026-04-23 21:39 11.01665 -83.59956 37913 ft 432 kts 285°
2026-04-23 21:40 11.03517 -83.65779 37915 ft 432 kts 285°
2026-04-23 21:40 11.05369 -83.71601 37917 ft 432 kts 285°
2026-04-23 21:41 11.07225 -83.77416 37914 ft 432 kts 285°
2026-04-23 21:41 11.09083 -83.83234 37914 ft 432 kts 285°
2026-04-23 21:42 11.10931 -83.89053 37913 ft 432 kts 285°
2026-04-23 21:42 11.12775 -83.94870 37924 ft 432 kts 285°
2026-04-23 21:43 11.14620 -84.00685 37926 ft 431 kts 285°
2026-04-23 21:43 11.16456 -84.06486 37921 ft 430 kts 285°
2026-04-23 21:44 11.18295 -84.12283 37916 ft 429 kts 285°
2026-04-23 21:44 11.20129 -84.18066 37916 ft 429 kts 285°
2026-04-23 21:45 11.21956 -84.23850 37905 ft 429 kts 285°
2026-04-23 21:45 11.23782 -84.29632 37906 ft 429 kts 285°
2026-04-23 21:46 11.25614 -84.35407 37915 ft 428 kts 286°
2026-04-23 21:46 11.27433 -84.41172 37901 ft 427 kts 286°
2026-04-23 21:47 11.29247 -84.46933 37899 ft 427 kts 286°
2026-04-23 21:47 11.31068 -84.52689 37891 ft 427 kts 286°
2026-04-23 21:48 11.32884 -84.58444 37890 ft 427 kts 286°
2026-04-23 21:48 11.34696 -84.64200 37888 ft 427 kts 286°
2026-04-23 21:49 11.36504 -84.69955 37882 ft 426 kts 286°
2026-04-23 21:49 11.38310 -84.75710 37885 ft 426 kts 286°
2026-04-23 21:50 11.40122 -84.81461 37885 ft 426 kts 286°
2026-04-23 21:50 11.41925 -84.87209 37882 ft 426 kts 286°
2026-04-23 21:51 11.43726 -84.92957 37880 ft 426 kts 286°
2026-04-23 21:51 11.45512 -84.98666 37883 ft 425 kts 286°
2026-04-23 21:52 11.47312 -85.04408 37881 ft 425 kts 286°
2026-04-23 21:52 11.49113 -85.10145 37892 ft 424 kts 286°
2026-04-23 21:53 11.50900 -85.15863 37889 ft 423 kts 286°
2026-04-23 21:53 11.52686 -85.21570 37885 ft 422 kts 286°
2026-04-23 21:54 11.54469 -85.27268 37889 ft 422 kts 286°
2026-04-23 21:54 11.56241 -85.32962 37888 ft 421 kts 286°
2026-04-23 21:55 11.58185 -85.38599 37877 ft 422 kts 289°
2026-04-23 21:55 11.60391 -85.44182 37878 ft 422 kts 290°
2026-04-23 21:56 11.62578 -85.49683 37878 ft 421 kts 290°
2026-04-23 21:56 11.64716 -85.55237 37883 ft 420 kts 289°
2026-04-23 21:57 11.66822 -85.60794 37885 ft 419 kts 289°
2026-04-23 21:57 11.68923 -85.66338 37884 ft 419 kts 289°
2026-04-23 21:58 11.71034 -85.71871 37881 ft 418 kts 290°
2026-04-23 21:58 11.73148 -85.77397 37878 ft 418 kts 289°
2026-04-23 21:59 11.75247 -85.82928 37876 ft 418 kts 289°
2026-04-23 21:59 11.77352 -85.88456 37874 ft 418 kts 289°
2026-04-23 22:00 11.80505 -85.96747 37874 ft 418 kts 289°
2026-04-23 22:00 11.82607 -86.02275 37875 ft 418 kts 289°
2026-04-23 22:01 11.84709 -86.07803 37872 ft 418 kts 289°
2026-04-23 22:01 11.86808 -86.13330 37872 ft 418 kts 289°
2026-04-23 22:02 11.88903 -86.18865 37874 ft 418 kts 289°
2026-04-23 22:02 11.90992 -86.24398 37874 ft 418 kts 289°
2026-04-23 22:03 11.93088 -86.29929 37874 ft 418 kts 289°
2026-04-23 22:03 11.95183 -86.35463 37880 ft 418 kts 289°
2026-04-23 22:04 11.97273 -86.41000 37879 ft 418 kts 289°
2026-04-23 22:04 11.99363 -86.46534 37877 ft 417 kts 289°
2026-04-23 22:05 12.01452 -86.52066 37878 ft 417 kts 289°
2026-04-23 22:05 12.03544 -86.57590 37887 ft 416 kts 290°
2026-04-23 22:06 12.05618 -86.63101 37889 ft 415 kts 290°
2026-04-23 22:06 12.07682 -86.68599 37894 ft 414 kts 290°
2026-04-23 22:07 12.09753 -86.74090 37892 ft 414 kts 290°
2026-04-23 22:07 12.10787 -86.76826 37699 ft 413 kts 290°
2026-04-23 22:07 12.11818 -86.79564 37439 ft 413 kts 290°
2026-04-23 22:08 12.12849 -86.82305 37182 ft 414 kts 290°
2026-04-23 22:08 12.13881 -86.85052 36930 ft 415 kts 290°
2026-04-23 22:08 12.14917 -86.87808 36675 ft 416 kts 290°
2026-04-23 22:08 12.15955 -86.90567 36421 ft 417 kts 289°
2026-04-23 22:09 12.16996 -86.93335 36178 ft 417 kts 289°
2026-04-23 22:09 12.18032 -86.96101 35946 ft 417 kts 289°
2026-04-23 22:09 12.19066 -86.98864 35708 ft 415 kts 289°
2026-04-23 22:09 12.20095 -87.01617 35467 ft 414 kts 289°
2026-04-23 22:10 12.21121 -87.04360 35234 ft 412 kts 289°
2026-04-23 22:10 12.22145 -87.07094 34995 ft 411 kts 289°
2026-04-23 22:10 12.23168 -87.09817 34760 ft 409 kts 289°
2026-04-23 22:10 12.24186 -87.12526 34538 ft 408 kts 289°
2026-04-23 22:11 12.25199 -87.15227 34307 ft 406 kts 289°
2026-04-23 22:11 12.26208 -87.17920 34081 ft 405 kts 289°
2026-04-23 22:11 12.27214 -87.20608 33850 ft 404 kts 289°
2026-04-23 22:11 12.28209 -87.23269 33439 ft 399 kts 289°
2026-04-23 22:12 12.29193 -87.25906 32971 ft 395 kts 289°
2026-04-23 22:12 12.30170 -87.28520 32496 ft 392 kts 289°
2026-04-23 22:12 12.31139 -87.31113 32022 ft 389 kts 289°
2026-04-23 22:12 12.32101 -87.33688 31560 ft 386 kts 289°
2026-04-23 22:13 12.33056 -87.36242 31107 ft 383 kts 289°
2026-04-23 22:13 12.34006 -87.38782 30652 ft 381 kts 288°
2026-04-23 22:13 12.34948 -87.41302 30224 ft 378 kts 288°
2026-04-23 22:13 12.35879 -87.43805 29758 ft 376 kts 288°
2026-04-23 22:14 12.36791 -87.46257 29234 ft 374 kts 288°
2026-04-23 22:14 12.37735 -87.48785 28594 ft 375 kts 289°
2026-04-23 22:14 12.38653 -87.51241 28136 ft 375 kts 289°
2026-04-23 22:14 12.39594 -87.53765 27817 ft 375 kts 289°
2026-04-23 22:15 12.40506 -87.56222 27496 ft 373 kts 289°
2026-04-23 22:15 12.41426 -87.58700 27179 ft 372 kts 289°
2026-04-23 22:15 12.42343 -87.61167 26862 ft 371 kts 289°
2026-04-23 22:15 12.43258 -87.63629 26544 ft 369 kts 289°
2026-04-23 22:16 12.44167 -87.66079 26200 ft 368 kts 289°
2026-04-23 22:16 12.45088 -87.68559 25616 ft 371 kts 289°
2026-04-23 22:16 12.46002 -87.71015 25030 ft 374 kts 290°
2026-04-23 22:16 12.46934 -87.73519 24592 ft 370 kts 290°
2026-04-23 22:17 12.47847 -87.75977 24126 ft 369 kts 290°
2026-04-23 22:17 12.48758 -87.78429 23650 ft 368 kts 290°
2026-04-23 22:17 12.49666 -87.80876 23125 ft 367 kts 290°
2026-04-23 22:17 12.50568 -87.83309 22644 ft 365 kts 290°
2026-04-23 22:18 12.51465 -87.85727 22191 ft 362 kts 290°
2026-04-23 22:18 12.52356 -87.88128 21738 ft 360 kts 290°
2026-04-23 22:18 12.53240 -87.90517 21280 ft 358 kts 290°
2026-04-23 22:18 12.54120 -87.92890 20841 ft 356 kts 290°
2026-04-23 22:19 12.54986 -87.95218 20416 ft 354 kts 291°
2026-04-23 22:19 12.56027 -87.97530 19969 ft 353 kts 302°
2026-04-23 22:19 12.57511 -87.99494 19275 ft 359 kts 314°
2026-04-23 22:19 12.59325 -88.01342 18635 ft 361 kts 315°
2026-04-23 22:20 12.61095 -88.03124 17947 ft 354 kts 315°
2026-04-23 22:20 12.62254 -88.04286 17543 ft 348 kts 315°
2026-04-23 22:20 12.63978 -88.06015 16682 ft 346 kts 315°
2026-04-23 22:20 12.65687 -88.07736 15905 ft 343 kts 315°
2026-04-23 22:21 12.67920 -88.09991 14938 ft 338 kts 315°
2026-04-23 22:21 12.69046 -88.11134 14462 ft 336 kts 315°
2026-04-23 22:21 12.70696 -88.12810 13784 ft 333 kts 315°
2026-04-23 22:21 12.72853 -88.15009 12785 ft 328 kts 313°
2026-04-23 22:22 12.73800 -88.16212 12566 ft 316 kts 303°
2026-04-23 22:22 12.74970 -88.18074 12318 ft 307 kts 303°
2026-04-23 22:22 12.76500 -88.20495 11998 ft 305 kts 303°
2026-04-23 22:22 12.77277 -88.21724 11836 ft 304 kts 303°
2026-04-23 22:23 12.78421 -88.23536 11599 ft 302 kts 303°
2026-04-23 22:23 12.79552 -88.25334 11358 ft 299 kts 303°
2026-04-23 22:23 12.80678 -88.27129 11119 ft 298 kts 303°
2026-04-23 22:23 12.81799 -88.28916 10884 ft 298 kts 303°
2026-04-23 22:24 12.82920 -88.30703 10656 ft 298 kts 303°
2026-04-23 22:24 12.84035 -88.32487 10419 ft 297 kts 303°
2026-04-23 22:24 12.85146 -88.34265 10184 ft 296 kts 303°
2026-04-23 22:24 12.86253 -88.36037 9954 ft 294 kts 303°
2026-04-23 22:25 12.87355 -88.37802 9848 ft 294 kts 303°
2026-04-23 22:25 12.88460 -88.39569 9739 ft 294 kts 303°
2026-04-23 22:25 12.89562 -88.41330 9597 ft 294 kts 303°
2026-04-23 22:25 12.90664 -88.43094 9474 ft 294 kts 303°
2026-04-23 22:26 12.91764 -88.44855 9351 ft 293 kts 303°
2026-04-23 22:26 12.92862 -88.46610 9224 ft 292 kts 303°
2026-04-23 22:26 12.93961 -88.48364 9103 ft 292 kts 303°
2026-04-23 22:26 12.95055 -88.50115 8978 ft 292 kts 303°
2026-04-23 22:27 12.96145 -88.51864 8853 ft 291 kts 303°
2026-04-23 22:27 12.97233 -88.53609 8727 ft 291 kts 303°
2026-04-23 22:27 12.98322 -88.55352 8604 ft 290 kts 303°
2026-04-23 22:27 12.99409 -88.57091 8481 ft 289 kts 303°
2026-04-23 22:28 13.00492 -88.58825 8358 ft 289 kts 303°
2026-04-23 22:28 13.01573 -88.60558 8234 ft 288 kts 303°
2026-04-23 22:28 13.02650 -88.62285 7993 ft 286 kts 303°
2026-04-23 22:28 13.03717 -88.63994 7768 ft 285 kts 303°
2026-04-23 22:29 13.04785 -88.65709 7575 ft 285 kts 303°
2026-04-23 22:29 13.05848 -88.67420 7349 ft 284 kts 303°
2026-04-23 22:29 13.06910 -88.69129 7158 ft 284 kts 303°
2026-04-23 22:29 13.07971 -88.70831 6968 ft 283 kts 303°
2026-04-23 22:30 13.09033 -88.72529 6783 ft 282 kts 303°
2026-04-23 22:30 13.10093 -88.74222 6597 ft 281 kts 303°
2026-04-23 22:30 13.11145 -88.75908 6428 ft 280 kts 302°
2026-04-23 22:30 13.12192 -88.77593 6313 ft 280 kts 302°
2026-04-23 22:31 13.13240 -88.79279 6209 ft 280 kts 302°
2026-04-23 22:31 13.14288 -88.80962 6086 ft 280 kts 302°
2026-04-23 22:31 13.15335 -88.82643 5964 ft 279 kts 302°
2026-04-23 22:31 13.16379 -88.84321 5840 ft 279 kts 302°
2026-04-23 22:32 13.17419 -88.85995 5715 ft 278 kts 302°
2026-04-23 22:32 13.18457 -88.87663 5602 ft 277 kts 302°
2026-04-23 22:32 13.19481 -88.89308 5469 ft 276 kts 302°
2026-04-23 22:32 13.20513 -88.90966 5351 ft 275 kts 302°
2026-04-23 22:33 13.21539 -88.92618 5166 ft 274 kts 301°
2026-04-23 22:33 13.22558 -88.94260 4986 ft 269 kts 301°
2026-04-23 22:33 13.23548 -88.95854 4798 ft 260 kts 301°
2026-04-23 22:33 13.24507 -88.97394 4608 ft 252 kts 301°
2026-04-23 22:34 13.25439 -88.98890 4408 ft 246 kts 301°
2026-04-23 22:34 13.26350 -89.00359 4205 ft 243 kts 301°
2026-04-23 22:34 13.27232 -89.01838 4017 ft 242 kts 296°
2026-04-23 22:34 13.27875 -89.03422 3846 ft 239 kts 286°
2026-04-23 22:35 13.28369 -89.05051 3702 ft 239 kts 286°
2026-04-23 22:35 13.28869 -89.06677 3559 ft 239 kts 287°
2026-04-23 22:35 13.29371 -89.08297 3417 ft 238 kts 286°
2026-04-23 22:35 13.29872 -89.09915 3283 ft 238 kts 286°
2026-04-23 22:36 13.30372 -89.11530 3145 ft 237 kts 287°
2026-04-23 22:36 13.30871 -89.13141 2997 ft 236 kts 286°
2026-04-23 22:36 13.31366 -89.14747 2844 ft 233 kts 286°
2026-04-23 22:36 13.31837 -89.16268 2696 ft 216 kts 286°
2026-04-23 22:37 13.32417 -89.17648 2565 ft 208 kts 301°
2026-04-23 22:37 13.33379 -89.18743 2428 ft 207 kts 320°
2026-04-23 22:37 13.34632 -89.19454 2282 ft 207 kts 339°
2026-04-23 22:37 13.36036 -89.19702 2155 ft 200 kts 359°
2026-04-23 22:38 13.37393 -89.19479 2016 ft 196 kts 18°
2026-04-23 22:38 13.38595 -89.18842 1871 ft 195 kts 36°
2026-04-23 22:38 13.39541 -89.17865 1753 ft 190 kts 54°
2026-04-23 22:38 13.40121 -89.16704 1621 ft 178 kts 70°
2026-04-23 22:39 13.40515 -89.15576 1456 ft 160 kts 70°
2026-04-23 22:39 13.40892 -89.14520 1317 ft 155 kts 70°
2026-04-23 22:39 13.41259 -89.13496 1187 ft 150 kts 70°
2026-04-23 22:39 13.41619 -89.12493 1066 ft 150 kts 69°
2026-04-23 22:40 13.41975 -89.11495 943 ft 148 kts 70°
2026-04-23 22:40 13.42324 -89.10504 820 ft 146 kts 68°
2026-04-23 22:40 13.43014 -89.08591 423 ft 140 kts 70°
2026-04-23 22:41 13.43346 -89.07659 276 ft 138 kts 69°
2026-04-23 22:41 13.43675 -89.06736 141 ft 135 kts 66°
2026-04-23 22:41 13.43958 -89.05958 91 ft 92 kts 70°
2026-04-23 22:41 13.44122 -89.05504 91 ft 43 kts 69°
2026-04-23 22:42 13.44185 -89.05346 95 ft 10 kts 50°
2026-04-23 22:42 13.44226 -89.05333 96 ft 4 kts 356°
2026-04-23 22:42 13.44251 -89.05340 95 ft 6 kts 341°
2026-04-23 22:42 13.44282 -89.05352 96 ft 2 kts 338°
2026-04-23 22:43 13.44293 -89.05356 96 ft 2 kts 340°
2026-04-23 22:43 13.44320 -89.05367 96 ft 4 kts 340°
2026-04-23 22:43 13.44344 -89.05375 96 ft 3 kts 340°
2026-04-23 22:43 13.44374 -89.05386 96 ft 6 kts 341°
2026-04-23 22:44 13.44425 -89.05392 97 ft 7 kts 27°
2026-04-23 22:44 13.44451 -89.05355 97 ft 5 kts 40°
2026-04-23 22:44 13.44476 -89.05360 97 ft 3 kts 333°
2026-04-23 22:44 13.44514 -89.05376 97 ft 4 kts 340°
2026-04-23 22:45 13.44521 -89.05379 97 ft 0 kts 339°